Flag for U.S.A. Weather past 2 weeks in Glendale, California, U.S.A.

Now
66 °F

Clear.


Feels Like: 66 °F
Forecast: 63 / 84 °F
Wind: 5 mph from South

Location: Burbank-Glendale-Pasadena Airport

Current Time: Sep 3, 2014 at 1:44:50 AM

Latest Report: Sep 3, 2014 at 12:53 AM


Visibility: 9 mi

Pressure: 29.78 "Hg

Humidity: 87%

Dew point: 62 °F

Location of GlendaleLocation

Historic Weather in Glendale — Graph

°F

Glendale temperature yesterday

Maximum temperature yesterday: 85 °F (at 1:53 PM)
Minimum temperature yesterday: 66 °F (at 4:53 AM)
Average temperature yesterday: 74 °F

Past Weeks' High & Low Weather Summary

 TemperatureHumidityPressure
High99 °F (Aug 28, 3:53 PM)90% (Aug 31, 6:53 AM)30.01 "Hg (Aug 31, 6:53 AM)
Low62 °F (Aug 24, 6:53 AM)9% (Aug 28, 7:53 PM)29.70 "Hg (Aug 30, 5:53 PM)
Average75 °F55%29.85 "Hg
* Reported Aug 18 11:53 PM — Sep 2 11:53 PM, Glendale, Weather by CustomWeather, © 2014

Note: Actual official high and low records may vary slightly from our data, if they occured in-between our weather recording intervals... More about our weather records

Advertising

Glendale weather history for previous 24 hours

 ConditionsComfort  
Time TempWeatherWind HumidityBarometerVisibility
11:53 PM
Sep 2
68 °FClear.No wind82%29.77 "Hg7 mi
10:53 PM69 °FClear.6 mph79%29.77 "Hg10 mi
9:53 PM70 °FClear.5 mph73%29.77 "Hg10 mi
8:53 PM71 °FClear.6 mph71%29.76 "Hg10 mi
7:53 PM74 °FSunny.5 mph64%29.74 "Hg10 mi
6:53 PM76 °FSunny.7 mph60%29.73 "Hg10 mi
5:53 PM79 °FSunny.9 mph54%29.73 "Hg10 mi
4:53 PM84 °FSunny.13 mph45%29.72 "Hg10 mi
3:53 PM84 °FSunny.8 mph43%29.72 "Hg10 mi
2:53 PM84 °FSunny.12 mph41%29.75 "Hg10 mi
1:53 PM85 °FSunny.5 mph37%29.76 "Hg10 mi
12:53 PM84 °FSunny.7 mph38%29.78 "Hg10 mi
11:53 AM82 °FSunny.7 mph46%29.80 "Hg10 mi
10:53 AM77 °FSunny.5 mph50%29.81 "Hg10 mi
9:53 AM73 °FSunny.No wind62%29.82 "Hg9 mi
8:53 AM69 °FSunny.No wind73%29.83 "Hg6 mi
7:53 AM68 °FOvercast.7 mph76%29.83 "Hg6 mi
7:01 AM66 °FOvercast.3 mph83%29.88 "Hg6 mi
5:53 AM66 °FLow clouds.3 mph87%29.82 "Hg8 mi
4:53 AM66 °FLow clouds.7 mph87%29.81 "Hg10 mi
3:53 AM67 °FOvercast.7 mph85%29.81 "Hg10 mi
2:53 AM68 °FClear.7 mph78%29.81 "Hg10 mi
1:53 AM69 °FClear.7 mph76%29.80 "Hg10 mi
Weather by CustomWeather, © 2014

See weather overviewHow to use our weather pages